Dallas, TX

4:37 AM CST on February 22, 2017 (GMT -0600)
Dallas-Fort Worth International

Weather History for KDFW - May, 2012

Change the Weather History Date:

Monday, May 14, 2012

  Actual Average Record
Temperature  
Mean Temperature 73 °F 73 °F  
Max Temperature 83 °F 83 °F 95 °F (1955)
Min Temperature 62 °F 64 °F 42 °F (1971)
Degree Days  
Heating Degree Days 0 0  
Month to date heating degree days 0 6  
Since 1 July heating degree days 1777 2282  
Cooling Degree Days 8 9  
Month to date cooling degree days 151 98  
Year to date cooling degree days 430 236  
Growing Degree Days 22 (Base 50)    
Moisture  
Dew Point 58 °F    
Average Humidity 64    
Maximum Humidity 87    
Minimum Humidity 40    
Precipitation  
Precipitation 0.00 in 0.17 in 2.41 in (1910)
Month to date precipitation 0.80 2.24  
Year to date precipitation 18.84 13.59  
Sea Level Pressure  
Sea Level Pressure 30.05 in    
Wind  
Wind Speed 7 mph (NNE)    
Max Wind Speed 16 mph    
Max Gust Speed 20 mph    
Visibility 10 miles    
Events      
T = Trace of Precipitation, MM = Missing Value Source: NWS Daily Summary

Daily Weather History Graph

Daily Weather History Graph

Search for Another Location

Airport or City:

Trip Planner

Search our weather history database for the weather conditions in past years. The results will help you decide how hot, cold, wet, or windy it might be!

Date:

Astronomy

May. 14, 2012 Rise Set
Actual Time 6:29 AM CDT 8:20 PM CDT
Civil Twilight 6:02 AM CDT 8:47 PM CDT
Nautical Twilight 5:29 AM CDT 9:20 PM CDT
Astronomical Twilight 4:54 AM CDT 9:55 PM CDT
Moon 2:46 AM CDT (5/14) 2:58 PM CDT (5/14)
Length of Visible Light 14h 45m
Length of Day
13h 50m
Waning Crescent, 32% of the Moon is Illuminated
May 14
Waning Crescent
May 20
New
May 28
First Quarter
Jun 4
Full
Jun 11
Last Quarter

Hourly Weather History & Observations

Time (CDT) Temp. Heat Index Dew Point Humidity Pressure Visibility Wind Dir Wind Speed Gust Speed Precip Events Conditions
12:53 AM 69.1 °F - 57.0 °F 65% 30.08 in 10.0 mi Calm Calm - N/A   Partly Cloudy
1:53 AM 66.0 °F - 59.0 °F 78% 30.07 in 10.0 mi North 4.6 mph - N/A   Clear
2:53 AM 66.0 °F - 57.9 °F 75% 30.06 in 10.0 mi Calm Calm - N/A   Mostly Cloudy
3:53 AM 66.0 °F - 59.0 °F 78% 30.06 in 10.0 mi NNW 4.6 mph - N/A   Scattered Clouds
4:53 AM 64.0 °F - 59.0 °F 84% 30.05 in 10.0 mi NNW 6.9 mph - N/A   Partly Cloudy
5:53 AM 64.0 °F - 59.0 °F 84% 30.07 in 10.0 mi NNW 5.8 mph - N/A   Partly Cloudy
6:53 AM 64.0 °F - 60.1 °F 87% 30.09 in 10.0 mi NNW 6.9 mph - N/A   Scattered Clouds
7:53 AM 66.0 °F - 61.0 °F 84% 30.10 in 10.0 mi North 8.1 mph - N/A   Mostly Cloudy
8:53 AM 70.0 °F - 61.0 °F 73% 30.11 in 10.0 mi North 6.9 mph - N/A   Mostly Cloudy
9:53 AM 73.9 °F - 60.1 °F 62% 30.10 in 10.0 mi NE 4.6 mph - N/A   Mostly Cloudy
10:53 AM 77.0 °F - 59.0 °F 54% 30.10 in 10.0 mi NNE 8.1 mph - N/A   Overcast
11:53 AM 78.1 °F - 57.9 °F 50% 30.09 in 10.0 mi ENE 4.6 mph - N/A   Overcast
12:53 PM 81.0 °F 81.3 °F 59.0 °F 47% 30.08 in 10.0 mi North 10.4 mph - N/A   Mostly Cloudy
1:53 PM 81.0 °F 80.8 °F 55.9 °F 42% 30.05 in 10.0 mi NNE 5.8 mph - N/A   Mostly Cloudy
2:53 PM 81.0 °F 80.7 °F 55.0 °F 41% 30.03 in 10.0 mi NNE 8.1 mph - N/A   Mostly Cloudy
3:53 PM 82.9 °F 82.1 °F 55.9 °F 39% 30.00 in 10.0 mi ENE 6.9 mph - N/A   Mostly Cloudy
4:53 PM 82.0 °F 81.4 °F 55.0 °F 39% 29.99 in 10.0 mi NNE 11.5 mph 18.4 mph N/A   Mostly Cloudy
5:53 PM 81.0 °F 80.8 °F 55.9 °F 42% 29.99 in 10.0 mi NNE 8.1 mph - N/A   Mostly Cloudy
6:53 PM 80.1 °F 80.4 °F 57.0 °F 45% 29.98 in 10.0 mi NNE 10.4 mph - N/A   Scattered Clouds
7:53 PM 77.0 °F - 57.0 °F 50% 29.99 in 10.0 mi NNE 12.7 mph - N/A   Scattered Clouds
8:53 PM 73.0 °F - 55.9 °F 55% 30.00 in 10.0 mi NE 8.1 mph - N/A   Mostly Cloudy
9:53 PM 73.0 °F - 55.9 °F 55% 30.01 in 10.0 mi NNE 8.1 mph - N/A   Overcast
10:53 PM 72.0 °F - 55.9 °F 57% 30.02 in 10.0 mi NE 8.1 mph - N/A   Overcast
11:53 PM 70.0 °F - 57.0 °F 63% 30.03 in 10.0 mi NNE 6.9 mph - N/A   Mostly Cloudy